ND5T Weather Reports


Display with metric or nautical units.
time (UTC)temp
F
wind
direction
speed
MPH
gust
MPH
rain 1hr
in
rain 24hr
in
rain mn
in
humidity
%
barometer
mb
20260504231501 77 76 0.0 4.0 0.00 0.00 0.00 70 1010.9
20260504230001 77 76 0.0 4.0 0.00 0.00 0.00 69 1011.1
20260504224545 77 106 0.0 6.0 0.00 0.00 0.00 68 1011.0
20260504223054 78 92 0.0 3.0 0.00 0.00 0.00 67 1011.2
20260504221520 79 38 0.0 2.0 0.00 0.00 0.00 66 1011.4
20260504220007 79 85 0.0 3.0 0.00 0.00 0.00 64 1011.4
20260504214559 80 65 0.0 4.0 0.00 0.00 0.00 62 1011.5
20260504213113 81 90 0.0 2.0 0.00 0.00 0.00 59 1011.6
20260504211549 82 105 0.0 2.0 0.00 0.00 0.00 57 1011.8
20260504210005 83 105 0.0 3.0 0.00 0.00 0.00 54 1012.0
20260504204530 82 82 0.0 3.0 0.00 0.00 0.00 55 1012.4
20260504203048 82 291 0.0 1.0 0.00 0.00 0.00 55 1012.7
20260504201526 82 206 0.0 4.0 0.00 0.00 0.00 54 1012.8
20260504200007 82 80 0.0 1.0 0.00 0.00 0.00 57 1012.9
20260504194555 82 116 0.0 3.0 0.00 0.00 0.00 54 1013.2
20260504193103 80 288 0.0 3.0 0.00 0.00 0.00 60 1013.5
20260504191507 81 331 0.0 1.0 0.00 0.00 0.00 57 1013.8
20260504190040 81 289 0.0 3.0 0.00 0.00 0.00 56 1014.0
20260504184547 82 275 0.0 2.0 0.00 0.00 0.00 53 1014.1
20260504183019 81 105 0.0 3.0 0.00 0.00 0.00 55 1014.2
20260504181548 80 43 0.0 2.0 0.00 0.00 0.00 53 1014.4
20260504180009 80 294 0.0 4.0 0.00 0.00 0.00 57 1014.6
20260504174528 79 88 0.0 3.0 0.00 0.00 0.00 57 1014.8
20260504173049 79 360 0.0 3.0 0.00 0.00 0.00 58 1015.0
20260504171601 78 107 0.0 2.0 0.00 0.00 0.00 58 1015.3
20260504150112 72 128 0.0 3.0 0.00 0.00 0.00 66 1016.3
20260504130104 57 171 0.0 0.0 0.00 0.00 0.00 95 1016.3
20260504120118 54 177 0.0 0.0 0.00 0.00 0.00 94 1016.2
20260504100122 55 174 0.0 0.0 0.00 0.00 0.00 92 1016.1
20260504081559 56 174 0.0 0.0 0.00 0.00 0.00 90 1016.7
20260504080116 56 174 0.0 0.0 0.00 0.00 0.00 91 1016.9
20260504060121 58 174 0.0 0.0 0.00 0.00 0.00 86 1018.0
20260504044539 60 174 0.0 0.0 0.00 0.00 0.00 81 1018.5
20260504043033 61 174 0.0 0.0 0.00 0.00 0.00 81 1018.5
20260504041549 62 174 0.0 0.0 0.00 0.00 0.00 79 1018.5
20260504040124 62 174 0.0 0.0 0.00 0.00 0.00 79 1018.6
20260504034523 62 174 0.0 0.0 0.00 0.00 0.00 78 1018.7
20260504033106 62 174 0.0 0.0 0.00 0.00 0.00 77 1018.7
20260504031553 63 174 0.0 0.0 0.00 0.00 0.00 77 1018.7
20260504030109 64 174 0.0 0.0 0.00 0.00 0.00 75 1018.4
20260504024516 65 174 0.0 0.0 0.00 0.00 0.00 74 1018.3
20260504023020 65 174 0.0 0.0 0.00 0.00 0.00 74 1018.4
20260504021600 66 174 0.0 0.0 0.00 0.00 0.00 69 1018.3
20260504020114 66 174 0.0 0.0 0.00 0.00 0.00 70 1018.1
20260504014528 67 174 0.0 0.0 0.00 0.00 0.00 68 1018.1
20260504013054 68 174 0.0 0.0 0.00 0.00 0.00 65 1017.9
20260504011529 69 174 0.0 0.0 0.00 0.00 0.00 63 1017.8
20260504010053 70 174 0.0 0.0 0.00 0.00 0.00 61 1017.8
20260504004603 72 173 0.0 0.0 0.00 0.00 0.00 56 1017.9
20260504003114 73 173 0.0 0.0 0.00 0.00 0.00 55 1017.8
20260504001603 73 166 0.0 1.0 0.00 0.00 0.00 54 1018.0
20260504000052 74 165 0.0 1.0 0.00 0.00 0.00 51 1018.0
20260503234505 75 296 0.0 1.0 0.00 0.00 0.00 49 1018.1
20260503233027 75 103 0.0 2.0 0.00 0.00 0.00 49 1018.1